www.pogodaiklimat.ru

Погода и климат >> Архив погоды >> Ирак >> Fao


ПОГОДА в Fao

  • Прогноз погоды в Fao
  • Монитор погоды в Fao
  • Климат города

АРХИВ ПОГОДЫ в Fao

Время (UTC), дата Ветер
(напр.,м/с)
 
Видим.   Явления Облачность Т
(С)
Тd
(С)
f
(%)
Тe
(С)
Тes
(С)
Комфортность P
(гПа)
Po
(гПа)
Тmin
(С)
Tmax
(С)
R
(мм)
R24
(мм)
S
(см)
09 13.06 ЮЗ 2 10 км ясно +41.4 +8.8 14 +39 +61 опасность
солнечного
удара
1002.0 1002.0
12 13.06 С 2 10 км ясно +42.8 +7.3 12 +40 +52 опасность
солнечного
удара
1000.2 1000.0
15 13.06 ЮВ 3 10 км ясно +39.0 +8.2 16 +37 +37 очень
жарко
999.2 999.0
18 13.06 Ю 2 10 км ясно +35.0 +19.4 40 +40 +40 очень
душно
1000.2 1000.0 +43.4
21 13.06 Ю 2 10 км ясно +33.0 +19.5 45 +39 +39 очень
душно
999.8 1000.0
00 14.06 Ю 3 10 км ясно +32.6 +12.7 30 +33 +33 жарко 1000.8 1001.0
03 14.06 ЮЗ 3 10 км ясно +32.0 +14.2 34 +34 +35 душно 1001.2 1001.0
06 14.06 З 4 10 км ясно +37.8 +10.6 19 +37 +46 очень
жарко
1003.2 1003.0 +31.5
09 14.06 СЗ 3 10 км ясно +42.6 +10.1 15 +41 +59 опасность
перегрева
1003.0 1003.0
12 14.06 З 3 10 км ясно +45.2 +5.9 10 +43 +52 опасность
перегрева
1001.2 1001.0
15 14.06 СЗ 2 10 км ясно +42.0 +4.6 10 +39 +39 очень
жарко
1000.8 1001.0
18 14.06 СЗ 2 10 км ясно +36.6 +11.2 22 +36 +36 очень
жарко
1002.6 1003.0 +45.4
21 14.06 СЗ 3 10 км ясно +35.4 +11.7 24 +35 +35 очень
жарко
1003.0 1003.0
00 15.06 СЗ 2 10 км ясно +32.8 +13.0 30 +33 +33 жарко 1002.2 1002.0
03 15.06 С 2 10 км ясно +31.8 +12.9 32 +33 +34 жарко 1003.0 1003.0
06 15.06 СЗ 2 10 км ясно +38.2 +10.2 19 +37 +51 опасность
солнечного
удара
1005.2 1005.0 +31.0
09 15.06 СЗ 3 10 км ясно +41.8 +9.0 14 +40 +58 опасность
солнечного
удара
1004.4 1004.0
12 15.06 СЗ 3 10 км ясно +43.2 +4.5 10 +40 +50 очень
жарко
1003.0 1003.0
15 15.06 З 3 10 км ясно +41.2 +9.0 15 +39 +40 очень
жарко
1002.2 1002.0
21 15.06 З 2 10 км ясно +34.0 +12.0 26 +34 +34 очень
жарко
1004.8 1005.0
03 16.06 ЮЗ 2 10 км ясно +31.2 +11.2 29 +31 +33 жарко 1004.8 1005.0
06 16.06 ЮЗ 4 10 км ясно +38.0 +8.7 17 +36 +46 очень
жарко
1005.4 1005.0 +29.8
09 16.06 ЮЗ 4 10 км ясно +42.4 +3.2 9 +39 +54 опасность
солнечного
удара
1004.2 1004.0
12 16.06 ЮЗ 5 10 км ясно +43.0 +3.2 9 +40 +46 очень
жарко
1002.8 1003.0
15 16.06 ЮЗ 3 10 км ясно +41.6 +5.9 12 +39 +39 очень
жарко
1002.4 1002.0
18 16.06 ЮЗ 4 10 км ясно +37.0 +7.9 17 +35 +35 очень
жарко
1003.8 1004.0 +43.4
21 16.06 З 4 10 км ясно +34.8 +9.1 21 +33 +33 жарко 1003.8 1004.0
00 17.06 ЮЗ 4 10 км ясно +32.6 +8.5 23 +31 +31 жарко 1002.6 1003.0
03 17.06 ЮЗ 4 10 км ясно +31.8 +7.0 21 +30 +31 жарко 1002.4 1002.0
06 17.06 СЗ 7 10 км ясно +38.4 +6.3 14 +36 +40 очень
жарко
1003.4 1003.0 +31.0
09 17.06 СЗ 5 10 км ясно +42.4 +5.6 11 +40 +51 опасность
солнечного
удара
1001.8 1002.0
12 17.06 СЗ 8 10 км ясно +43.6 +4.0 9 +40 +43 очень
жарко
999.7 1000.0
15 17.06 СЗ 7 10 км ясно +43.0 +6.4 11 +40 +40 очень
жарко
999.0 999.0
18 17.06 СЗ 5 10 км ясно +39.2 +6.7 14 +37 +37 очень
жарко
1000.6 1001.0 +44.4
21 17.06 СЗ 5 10 км ясно +35.6 +8.2 19 +34 +34 очень
жарко
1001.0 1001.0
00 18.06 СЗ 5 10 км ясно +34.2 +9.1 21 +33 +33 жарко 999.6 1000.0
03 18.06 СЗ 3 10 км ясно +33.2 +5.3 17 +31 +32 жарко 1000.4 1000.0
06 18.06 З 5 10 км ясно +40.8 +8.1 14 +39 +46 очень
жарко
1001.8 1002.0 +32.5
09 18.06 З 6 10 км ясно +44.4 +6.8 11 +42 +51 опасность
перегрева
1001.4 1001.0
12 18.06 З 8 10 км ясно +45.2 +8.0 11 +43 +45 опасность
перегрева
1000.0 1000.0
15 18.06 З 7 10 км ясно +43.8 +8.8 13 +42 +42 опасность
перегрева
1000.6 1001.0
18 18.06 З 3 10 км ясно +39.8 +7.3 14 +37 +37 очень
жарко
1002.2 1002.0 +45.8
21 18.06 З 6 10 км ясно +37.2 +7.6 16 +35 +35 очень
жарко
1002.0 1002.0
00 19.06 З 6 10 км ясно +34.0 +9.3 22 +33 +33 жарко 1002.6 1003.0
03 19.06 З 4 10 км ясно +31.6 +10.5 27 +31 +32 жарко 1003.8 1004.0
06 19.06 З 5 10 км ясно +39.6 +6.2 13 +37 +44 очень
жарко
1004.8 1005.0 +31.2
09 19.06 З 6 10 км ясно +42.8 +7.2 12 +40 +49 очень
жарко
1004.6 1005.0
12 19.06 З 4 10 км ясно +43.5 +9.1 13 +42 +50 опасность
перегрева
1004.6 1005.0
15 19.06 З 4 10 км ясно +41.2 +9.0 15 +39 +40 очень
жарко
1003.6 1004.0
18 19.06 З 4 10 км ясно +36.8 +7.5 17 +35 +35 очень
жарко
1005.4 1005.0 +44.2
21 19.06 З 4 10 км ясно +35.8 +6.7 17 +34 +34 очень
жарко
1005.0 1005.0
00 20.06 ЮЗ 3 10 км ясно +33.2 +9.0 23 +32 +32 жарко 1004.2 1004.0
03 20.06 ЮЗ 3 10 км ясно +32.2 +11.5 28 +32 +33 жарко 1005.4 1005.0
06 20.06 З 5 10 км ясно +39.0 +7.0 14 +36 +44 очень
жарко
1005.8 1006.0 +31.6

 

Местоположение метеостанции Fao (Ирак): широта 29.98 долгота 48.50 высота над уровнем моря 2 м.

В архиве по умолчанию представлена погода в Fao за последнюю неделю. Архивные данные за месяц целиком и за предыдущие месяцы, начиная с января 2011 года, Вы можете получить, выбрав интересующий диапазон дат из раскрывающегося списка и нажав кнопку "Ввод!".


*Определитесь, кто Вы:
робот инопланетянин человек

Внимание! Время в таблицах - всемирное. Для получения местного времени необходимо прибавить поправку, которая в Fao равна 3 ч.

Смотрите также архив погоды в соседних городах и на ближайших метеорологических станциях:

Погода в Bubiyan (Кувейт) (26 км)
Погода в Abadan (Иран) (50 км)
Погода в Failaka Island (Кувейт) (61 км)
Погода в Sabriyah (Кувейт) (68 км)
Погода в Abdaly (Кувейт) (78 км)
Погода в Al-Shuaiba (Кувейт) (80 км)
Погода в Kuwait City (Кувейт) (84 км)
Погода в Basrah Airport (Ирак) (92 км)
Погода в Experimental Farm (Кувейт) (94 км)
Погода в Basrah (Ирак) (95 км)

Пояснения к столбцам:

Ветер - указаны скорость ветра в м/с - средняя за 10 мин, порывы в срок и между сроками (в фигурных скобках) и направление, откуда дует ветер: С - северный, СВ - северо-восточный, В - восточный, ЮВ - юго-восточный, Ю - южный, ЮЗ - юго-западный, З - западный, СЗ - северо-западный.
Видимость - горизонтальная дальность видимости в метрах или километрах. При видимости от 1 до 10 км при отсутствии осадков обычно наблюдается дымка, при ухудшении видимости до 1 км и менее - туман. В сухую погоду видимость может ухудшаться дымом, пылью или мглою.
Явления - указаны атмосферные явления, наблюдавшиеся в срок или в последний час перед сроком; фигурными скобками обозначены явления, наблюдавшиеся между сроками (за 1-3 часа до срока); квадратными скобками обозначены град или гололедные отложения с указанием их диаметра в мм.
Облачность - указаны через наклонную черту общая и нижняя облачность в баллах и высота нижней границы облаков в метрах; квадратными скобками обозначены формы облаков: Ci - перистые, Cs - перисто-слоистые, Cc - перисто-кучевые, Ac - высококучевые, As - высокослоистые, Sc - слоисто-кучевые, Ns - слоисто-дождевые, Cu - кучевые, Cb - кучево-дождевые. Подробнее классификацию облаков см. в Атласе облаков (PDF).
T - Температура воздуха - температура, измеренная на высоте 2 м над землей.
Td - Температура точки росы - температура, при понижении до которой содержащийся в воздухе водяной пар достигнет насыщения.
f - Относительная влажность воздуха - влажноcть воздуха, измеренная на высоте 2 м над землей.
Te - Эффективная температура - температура, которую ощущает одетый по сезону человек в тени. Характеристика душности погоды. При расчете учитывается влияние влажности воздуха и скорости ветра на теплоощущения человека.
Tes - Эффективная температура на солнце - температура, которую ощущает человек, с поправкой на солнечный нагрев. Характеристика знойности погоды. Зависит от высоты солнца над горизонтом, облачности и скорости ветра. Ночью, в пасмурную погоду, а также при ветре 12 м/с и более поправка равна нулю.
P - Атмосферное давление - приведенное к уровню моря атмосферное давление.
Po - Атмосферное давление - измеренное на уровне метеостанции атмосферное давление.
Tmin - Минимальная температура - минимум температуры воздуха на высоте 2 м над землей.
Tmax - Максимальная температура - максимум температуры воздуха на высоте 2 м над землей.
R - Количество осадков - Количество выпавших осадков за период времени, мм. При наведении курсора мыши на число - период времени, за который выпало указанное количество осадков.
R24 - Количество осадков - Количество выпавших осадков за 24 часа, мм.
S - Снежный покров - Высота снежного покрова, см. При наведении курсора мыши на число - состояние снежного покрова и степень покрытия местности в баллах.